Location: Unspecified
(0.0000°N, 0.0000°E)
Time: 08:50:20
(UTC+02:00)

Ariane H10+ - Visible Passes

Search period start: 03 September 2015 00:00
Search period end: 13 September 2015 00:00
Orbit: 300 x 31518 km, 6.8° (Epoch: 01 September)

Date Brightness Start Highest point End Pass type
(mag) Time Alt. Az. Time Alt. Az. Time Alt. Az.
03 Sep 6.1 22:55:43 10° W 07:05:50 66° S 07:12:43 10° ESE visible
04 Sep 8.0 16:44:38 10° W 16:55:32 75° N 01:11:41 10° E visible
05 Sep 7.8 20:35:30 10° W 04:49:06 79° S 05:06:20 10° ESE visible
06 Sep 6.2 14:38:42 10° W 14:43:16 74° N 21:38:06 25° E visible
07 Sep 4.6 01:31:08 10° W 08:47:57 50° S 08:51:19 10° ESE visible
07 Sep 8.5 18:24:45 10° W 18:52:24 79° N 02:57:27 10° E visible
08 Sep 6.3 22:25:23 10° W 06:37:46 68° S 06:45:31 10° ESE visible
09 Sep 7.7 16:17:16 10° W 16:26:54 74° N 00:42:22 10° E visible
10 Sep 8.0 20:06:55 10° W 04:18:23 79° S 04:38:30 10° ESE visible
11 Sep 5.9 14:11:04 10° W 14:15:08 72° N 21:14:47 20° E visible
12 Sep 4.8 00:42:33 10° W 08:19:45 54° S 08:23:33 10° ESE visible
